Regional Weather Roundup
Issued by NWS

Home | Current Version | Previous Version | Text Only | Print | Product List | Glossary On
Versions: 1 2 3 4 5 6 7 8 9 10 11 12 13 14 15 16 17 18 19 20 21 22 23 24 25 26 27 28 29 30 31 32 33 34 35 36 37 38 39 40 41 42 43 44 45 46 47 48 49 50
007
ASUS44 KBMX 080610
RWRAL

ALABAMA REGIONAL WEATHER ROUNDUP
NATIONAL WEATHER SERVICE BIRMINGHAM AL
1200 AM CST MON FEB 08 2016

NOTE: "FAIR" INDICATES FEW OR NO CLOUDS BELOW 12,000 FEET
WITH NO SIGNIFICANT WEATHER AND/OR OBSTRUCTIONS TO VISIBILITY.

THE REMARK "TC" DENOTES TEMPERATURE IN DEGREES CELSIUS.

ALZ001>011-014-016>018-020-080700-
NORTH ALABAMA

CITY           SKY/WX    TMP DP  RH WIND       PRES   REMARKS
MUSCLE SHOALS  CLEAR     46  29  51 W13       29.94F
6HR MIN TEMP:  42; 6HR MAX TEMP:  49;

HUNTSVILLE     CLEAR     42  25  50 SW7       29.94F
6HR MIN TEMP:  41; 6HR MAX TEMP:  49;

DECATUR        CLEAR     44  27  51 SW8       29.95F
6HR MIN TEMP:  42; 6HR MAX TEMP:  50;

HALEYVILLE     FAIR      42  27  55 SW7       29.97F
6HR MIN TEMP:  41; 6HR MAX TEMP:  47;

GADSDEN        CLEAR     33  26  75 CALM      29.98F
6HR MIN TEMP:  30; 6HR MAX TEMP:  47;

$$

ALZ012-013-022-023-030>036-040>044-080700-
WEST CENTRAL ALABAMA

CITY           SKY/WX    TMP DP  RH WIND       PRES   REMARKS
TUSCALOOSA     CLEAR     36  29  75 CALM      30.03F
6HR MIN TEMP:  35; 6HR MAX TEMP:  52;

$$

ALZ015-024>027-033>036-040>044-080700-
CENTRAL ALABAMA

CITY           SKY/WX    TMP DP  RH WIND       PRES   REMARKS
BIRMINGHAM     CLEAR     44  24  45 SW5       30.02F
6HR MIN TEMP:  39; 6HR MAX TEMP:  52;

MONTGOMERY     CLEAR     43  25  49 SW7       30.06S
6HR MIN TEMP:  39; 6HR MAX TEMP:  52;

SHELBY CO ARPT CLEAR     40  24  53 CALM      30.02F
6HR MIN TEMP:  38; 6HR MAX TEMP:  49;

MAXWELL AFB    CLEAR     36  31  83 CALM      30.04S
6HR MIN TEMP:  36; 6HR MAX TEMP:  52;

GREENVILLE     NOT AVBL
$$

ALZ019-021-028-029-037-038-045>048-080700-
EAST CENTRAL ALABAMA

CITY           SKY/WX    TMP DP  RH WIND       PRES   REMARKS
ANNISTON       CLEAR     33  27  78 CALM      30.00F
6HR MIN TEMP:  32; 6HR MAX TEMP:  45;

ALEXANDER CITY CLEAR     33  30  90 CALM      30.01F
6HR MIN TEMP:  32; 6HR MAX TEMP:  50;

AUBURN         CLEAR     43  23  45 W5        30.03F
6HR MIN TEMP:  43; 6HR MAX TEMP:  51;

$$

ALZ051>064-080700-
SOUTHWEST ALABAMA

CITY           SKY/WX    TMP DP  RH WIND       PRES   REMARKS
MOBILE         CLEAR     44  38  79 W3        30.13S
6HR MIN TEMP:  44; 6HR MAX TEMP:  51;

BROOKLEY FIELD CLEAR     47  38  71 SW3       30.14S
6HR MIN TEMP:  47; 6HR MAX TEMP:  52;

EVERGREEN      PTCLDY    42  30  62 W6        30.08F
6HR MIN TEMP:  36; 6HR MAX TEMP:  51;

$$

ALZ049-050-065>069-080700-
SOUTHEAST ALABAMA

CITY           SKY/WX    TMP DP  RH WIND       PRES   REMARKS
DOTHAN         CLEAR     43  27  53 W8        30.09F
6HR MIN TEMP:  40; 6HR MAX TEMP:  51;

OZARK          CLEAR     38  28  68 W6        30.06F WCI  33
6HR MIN TEMP:  37; 6HR MAX TEMP:  52;

TROY           CLEAR     36  30  79 CALM      30.07S
6HR MIN TEMP:  34; 6HR MAX TEMP:  52;

EUFAULA        FAIR      34  29  82 W3        30.04R
6HR MIN TEMP:  34; 6HR MAX TEMP:  47;

$$




USA.gov is the U.S. government's official web portal to all federal, state and local government web resources and services.